UAL032 KBOS-LOWW

Flight info

Callsign UAL032
Flight time N/A
Altitude 37000
Route LBSTA8 LBSTA DCT ALLEX N431B ELSIR/M084F370 DCT 50N050W 52N040W 53N030W 53N020W DCT MALOT/N0483F370 DCT GISTI/N0480F390 DCT ENJEX DCT ADHAV DCT AXNEF DCT ZIPWE DCT OZZIL DCT SAWPE Q63 CPT UL9 BIG L607 KONAN UL607 MATUG DCT BOMBI DCT TENLO DCT DEXIT DCT VENEN VENEN3W
Aircraft B789/H-SDE1E2E3FGHIJ2J3J4J5M1RWXY/LB1D1

Departure

Time N/A
Airport Boston Logan International Airport (KBOS)

Arrival

Time 2026-04-21 09:58
Airport Vienna International Airport (LOWW)
Time Latitude Longitude Altitude Speed Heading
2026-04-21 09:09 49.82280 9.81833 37986 ft 509 kts 108°
2026-04-21 09:09 49.81063 9.86998 38243 ft 509 kts 109°
2026-04-21 09:09 49.79855 9.92117 38499 ft 509 kts 109°
2026-04-21 09:09 49.78632 9.97285 38774 ft 509 kts 109°
2026-04-21 09:10 49.77412 10.02429 39009 ft 508 kts 109°
2026-04-21 09:10 49.76190 10.07566 39194 ft 509 kts 109°
2026-04-21 09:10 49.73747 10.17806 39181 ft 506 kts 109°
2026-04-21 09:11 49.72539 10.22844 39187 ft 493 kts 109°
2026-04-21 09:11 49.71409 10.27553 39187 ft 483 kts 109°
2026-04-21 09:11 49.69077 10.37246 39182 ft 481 kts 109°
2026-04-21 09:12 49.66721 10.46984 39190 ft 485 kts 109°
2026-04-21 09:12 49.64368 10.56672 39183 ft 485 kts 109°
2026-04-21 09:13 49.61989 10.66424 39172 ft 486 kts 109°
2026-04-21 09:13 49.59600 10.76173 39172 ft 486 kts 109°
2026-04-21 09:14 49.57199 10.85926 39188 ft 486 kts 109°
2026-04-21 09:14 49.55203 10.94003 39192 ft 485 kts 109°
2026-04-21 09:15 49.52793 11.03715 39192 ft 485 kts 110°
2026-04-21 09:15 49.50193 11.13282 39187 ft 485 kts 110°
2026-04-21 09:16 49.47616 11.22882 39190 ft 486 kts 112°
2026-04-21 09:16 49.44975 11.32452 39170 ft 486 kts 111°
2026-04-21 09:17 49.42374 11.41983 39174 ft 487 kts 112°
2026-04-21 09:17 49.39715 11.51594 39168 ft 486 kts 112°
2026-04-21 09:18 49.37090 11.61102 39153 ft 486 kts 112°
2026-04-21 09:18 49.34431 11.70659 39161 ft 486 kts 112°
2026-04-21 09:19 49.31768 11.80209 39163 ft 487 kts 112°
2026-04-21 09:19 49.29108 11.89704 39164 ft 487 kts 112°
2026-04-21 09:20 49.26475 11.99065 39171 ft 488 kts 112°
2026-04-21 09:20 49.23782 12.08605 39154 ft 489 kts 112°
2026-04-21 09:21 49.21075 12.18152 39166 ft 489 kts 112°
2026-04-21 09:21 49.18361 12.27687 39160 ft 488 kts 112°
2026-04-21 09:22 49.15663 12.37130 39156 ft 486 kts 112°
2026-04-21 09:22 49.12950 12.46586 39153 ft 484 kts 112°
2026-04-21 09:23 49.10236 12.56011 39146 ft 486 kts 113°
2026-04-21 09:23 49.07503 12.65463 39147 ft 487 kts 113°
2026-04-21 09:24 49.04756 12.74926 39150 ft 489 kts 113°
2026-04-21 09:24 49.01994 12.84402 39142 ft 488 kts 113°
2026-04-21 09:25 48.99227 12.93861 39143 ft 489 kts 113°
2026-04-21 09:25 48.96469 13.03251 39144 ft 490 kts 113°
2026-04-21 09:26 48.93671 13.12741 39144 ft 490 kts 113°
2026-04-21 09:26 48.90875 13.22189 39145 ft 490 kts 113°
2026-04-21 09:27 48.88064 13.31647 39142 ft 489 kts 114°
2026-04-21 09:27 48.85276 13.40992 39137 ft 488 kts 114°
2026-04-21 09:28 48.82474 13.50350 39134 ft 486 kts 114°
2026-04-21 09:28 48.79662 13.59705 39128 ft 487 kts 114°
2026-04-21 09:29 48.76837 13.69069 39137 ft 489 kts 114°
2026-04-21 09:29 48.74467 13.78708 39141 ft 489 kts 108°
2026-04-21 09:30 48.72213 13.88441 39149 ft 490 kts 109°
2026-04-21 09:30 48.71073 13.93294 38713 ft 491 kts 108°
2026-04-21 09:30 48.69906 13.98285 37158 ft 511 kts 108°
2026-04-21 09:31 48.68717 14.03376 36193 ft 515 kts 109°
2026-04-21 09:31 48.67518 14.08472 35568 ft 512 kts 109°
2026-04-21 09:31 48.66337 14.13468 35004 ft 508 kts 109°
2026-04-21 09:31 48.65160 14.18454 34446 ft 503 kts 109°
2026-04-21 09:32 48.63982 14.23439 33832 ft 499 kts 109°
2026-04-21 09:32 48.62814 14.28362 33168 ft 495 kts 109°
2026-04-21 09:32 48.61707 14.33217 32581 ft 490 kts 106°
2026-04-21 09:32 48.60772 14.38173 32070 ft 482 kts 104°
2026-04-21 09:33 48.59877 14.43027 31575 ft 476 kts 105°
2026-04-21 09:33 48.58897 14.47772 31088 ft 469 kts 107°
2026-04-21 09:33 48.57905 14.52423 30604 ft 463 kts 106°
2026-04-21 09:33 48.56970 14.57041 30109 ft 456 kts 105°
2026-04-21 09:34 48.56066 14.61611 29529 ft 450 kts 106°
2026-04-21 09:34 48.55153 14.66097 28952 ft 444 kts 106°
2026-04-21 09:34 48.54236 14.70516 28386 ft 438 kts 106°
2026-04-21 09:34 48.53347 14.74834 27839 ft 433 kts 106°
2026-04-21 09:35 48.52467 14.79147 27293 ft 427 kts 106°
2026-04-21 09:35 48.51591 14.83413 26771 ft 422 kts 106°
2026-04-21 09:35 48.50721 14.87620 26242 ft 417 kts 106°
2026-04-21 09:35 48.49862 14.91767 25726 ft 412 kts 106°
2026-04-21 09:36 48.49010 14.95880 25215 ft 408 kts 106°
2026-04-21 09:36 48.48175 14.99909 24725 ft 403 kts 107°
2026-04-21 09:36 48.47339 15.03923 24239 ft 399 kts 107°
2026-04-21 09:36 48.46511 15.07893 23759 ft 395 kts 107°
2026-04-21 09:37 48.45690 15.11824 23202 ft 390 kts 107°
2026-04-21 09:37 48.44884 15.15678 22638 ft 386 kts 107°
2026-04-21 09:37 48.44073 15.19543 22079 ft 382 kts 107°
2026-04-21 09:37 48.43287 15.23289 21540 ft 378 kts 107°
2026-04-21 09:38 48.42497 15.27040 21024 ft 374 kts 107°
2026-04-21 09:38 48.41714 15.30755 20505 ft 370 kts 107°
2026-04-21 09:38 48.40937 15.34430 19985 ft 366 kts 107°
2026-04-21 09:38 48.40169 15.38060 19484 ft 362 kts 107°
2026-04-21 09:39 48.39407 15.41657 18985 ft 358 kts 107°
2026-04-21 09:39 48.38652 15.45211 18499 ft 355 kts 107°
2026-04-21 09:39 48.37903 15.48736 17955 ft 351 kts 107°
2026-04-21 09:39 48.37159 15.52221 17400 ft 348 kts 107°
2026-04-21 09:40 48.36424 15.55666 16864 ft 344 kts 106°
2026-04-21 09:40 48.35695 15.59077 16336 ft 341 kts 106°
2026-04-21 09:40 48.34972 15.62450 15815 ft 337 kts 106°
2026-04-21 09:40 48.34256 15.65790 15351 ft 333 kts 106°
2026-04-21 09:41 48.33551 15.69069 15014 ft 325 kts 106°
2026-04-21 09:41 48.32869 15.72234 14685 ft 320 kts 106°
2026-04-21 09:41 48.32188 15.75401 14352 ft 316 kts 106°
2026-04-21 09:41 48.31503 15.78573 14032 ft 314 kts 106°
2026-04-21 09:42 48.30837 15.81652 13682 ft 313 kts 106°
2026-04-21 09:42 48.30167 15.84749 13322 ft 311 kts 106°
2026-04-21 09:42 48.29498 15.87833 12997 ft 308 kts 106°
2026-04-21 09:42 48.28836 15.90878 12730 ft 306 kts 106°
2026-04-21 09:43 48.28175 15.93919 12464 ft 306 kts 106°
2026-04-21 09:43 48.27516 15.96948 12193 ft 304 kts 106°
2026-04-21 09:43 48.26861 15.99950 11932 ft 302 kts 106°
2026-04-21 09:43 48.26205 16.02949 11670 ft 301 kts 106°
2026-04-21 09:44 48.25553 16.05931 11420 ft 300 kts 105°
2026-04-21 09:44 48.24902 16.08905 11167 ft 300 kts 105°
2026-04-21 09:44 48.24251 16.11870 10914 ft 298 kts 105°
2026-04-21 09:44 48.23604 16.14820 10650 ft 297 kts 105°
2026-04-21 09:45 48.22960 16.17744 10411 ft 295 kts 105°
2026-04-21 09:45 48.22314 16.20670 10157 ft 294 kts 105°
2026-04-21 09:45 48.21675 16.23576 9892 ft 292 kts 105°
2026-04-21 09:45 48.21046 16.26426 9629 ft 291 kts 106°
2026-04-21 09:46 48.20410 16.29293 9365 ft 289 kts 105°
2026-04-21 09:46 48.19775 16.32157 9087 ft 288 kts 105°
2026-04-21 09:46 48.19144 16.35008 8813 ft 288 kts 105°
2026-04-21 09:46 48.18513 16.37849 8555 ft 287 kts 105°
2026-04-21 09:47 48.17883 16.40676 8289 ft 286 kts 105°
2026-04-21 09:47 48.17254 16.43503 8027 ft 286 kts 105°
2026-04-21 09:47 48.16625 16.46323 7772 ft 284 kts 105°
2026-04-21 09:47 48.16001 16.49117 7533 ft 282 kts 105°
2026-04-21 09:48 48.15378 16.51902 7266 ft 278 kts 106°
2026-04-21 09:48 48.14781 16.54556 7000 ft 267 kts 105°
2026-04-21 09:48 48.14200 16.57146 6719 ft 257 kts 105°
2026-04-21 09:48 48.13641 16.59643 6444 ft 248 kts 105°
2026-04-21 09:49 48.13097 16.62068 6153 ft 243 kts 105°
2026-04-21 09:49 48.12563 16.64435 5981 ft 236 kts 105°
2026-04-21 09:49 48.12037 16.66776 5980 ft 238 kts 105°
2026-04-21 09:49 48.11494 16.69121 5979 ft 239 kts 110°
2026-04-21 09:50 48.10434 16.71058 5992 ft 249 kts 142°
2026-04-21 09:50 48.09957 16.71506 5985 ft 250 kts 152°
2026-04-21 09:50 48.05484 16.73433 5580 ft 250 kts 164°
2026-04-21 09:51 48.03831 16.74129 5321 ft 245 kts 165°
2026-04-21 09:51 48.02200 16.74800 5050 ft 241 kts 165°
2026-04-21 09:51 48.00596 16.75462 4771 ft 238 kts 165°
2026-04-21 09:51 47.99015 16.76119 4482 ft 234 kts 165°
2026-04-21 09:52 47.97451 16.76741 4211 ft 229 kts 170°
2026-04-21 09:52 47.95923 16.76499 3931 ft 221 kts 205°
2026-04-21 09:52 47.94739 16.75147 3659 ft 213 kts 238°
2026-04-21 09:52 47.94170 16.73183 3425 ft 204 kts 259°
2026-04-21 09:53 47.93789 16.71173 3201 ft 203 kts 259°
2026-04-21 09:53 47.93427 16.69133 2983 ft 201 kts 264°
2026-04-21 09:53 47.93572 16.67151 2979 ft 191 kts 294°
2026-04-21 09:53 47.94327 16.65584 2979 ft 185 kts 322°
2026-04-21 09:54 47.95489 16.64752 2987 ft 183 kts 344°
2026-04-21 09:54 47.96655 16.64273 2976 ft 166 kts 343°
2026-04-21 09:54 47.97718 16.63826 2924 ft 153 kts 343°
2026-04-21 09:54 47.98730 16.63398 2733 ft 150 kts 343°
2026-04-21 09:55 47.99723 16.62979 2540 ft 146 kts 343°
2026-04-21 09:55 48.00683 16.62583 2340 ft 139 kts 343°
2026-04-21 09:55 48.01557 16.62202 2160 ft 125 kts 342°
2026-04-21 09:55 48.02373 16.61748 1991 ft 127 kts 339°
2026-04-21 09:56 48.03215 16.61439 1826 ft 125 kts 349°
2026-04-21 09:56 48.04064 16.61186 1672 ft 125 kts 343°
2026-04-21 09:56 48.04922 16.60835 1486 ft 129 kts 342°
2026-04-21 09:56 48.05769 16.60466 1296 ft 124 kts 341°
2026-04-21 09:57 48.06614 16.60089 1108 ft 131 kts 342°
2026-04-21 09:57 48.07480 16.59720 926 ft 129 kts 343°
2026-04-21 09:57 48.08322 16.59363 762 ft 123 kts 343°
2026-04-21 09:57 48.09147 16.59015 644 ft 127 kts 342°
2026-04-21 09:58 48.09891 16.58700 629 ft 88 kts 344°
2026-04-21 09:58 48.10350 16.58504 623 ft 54 kts 343°
2026-04-21 09:58 48.10677 16.58335 624 ft 39 kts 329°
2026-04-21 09:58 48.10844 16.58106 619 ft 29 kts 314°
2026-04-21 09:59 48.10884 16.58046 630 ft 0 kts 314°
2026-04-21 10:00 48.10899 16.58023 630 ft 9 kts 314°
2026-04-21 10:01 48.10971 16.57913 627 ft 20 kts 314°
2026-04-21 10:01 48.11069 16.57718 626 ft 27 kts 295°
2026-04-21 10:01 48.11161 16.57423 630 ft 33 kts 296°
2026-04-21 10:01 48.11258 16.57127 626 ft 31 kts 296°
2026-04-21 10:02 48.11441 16.56565 623 ft 29 kts 296°
2026-04-21 10:02 48.11526 16.56305 624 ft 22 kts 296°
2026-04-21 10:02 48.11601 16.56188 629 ft 11 kts 346°
2026-04-21 10:03 48.11657 16.56159 632 ft 7 kts 324°
2026-04-21 10:03 48.11672 16.56129 627 ft 5 kts 301°
2026-04-21 10:03 48.11707 16.56082 629 ft 1 kts 354°
2026-04-21 10:03 48.11729 16.56097 627 ft 8 kts 26°
2026-04-21 10:04 48.11756 16.56116 627 ft 3 kts 25°
2026-04-21 10:04 48.11762 16.56120 630 ft 0 kts 25°